CST,Max TemperatureF,Mean TemperatureF,Min TemperatureF,Max Dew PointF,MeanDew PointF,Min DewpointF,Max Humidity, Mean Humidity, Min Humidity, Max Sea Level PressureIn, Mean Sea Level PressureIn, Min Sea Level PressureIn, Max VisibilityMiles, Mean VisibilityMiles, Min VisibilityMiles, Max Wind SpeedMPH, Mean Wind SpeedMPH, Max Gust SpeedMPH,PrecipitationIn, CloudCover, Events, WindDirDegrees
2013-1-1,14,0,-13,9,-3,-17,92,74,49,30.14,30.06,29.98,10,10,5,10,3,,0.00,3,Snow,261
2013-1-2,19,16,12,12,11,9,93,79,68,29.98,29.96,29.92,10,8,2,7,2,,0.00,8,Snow,179
2013-1-3,21,16,10,16,12,7,93,83,73,30.07,30.01,29.95,10,7,4,10,5,17,0.00,6,Snow,261
2013-1-4,32,21,6,19,13,5,93,78,55,30.09,29.97,29.90,10,10,7,12,6,17,0.00,0,Snow,258
2013-1-5,26,12,-2,18,8,-6,93,83,69,30.09,29.92,29.80,10,9,5,8,1,,0.00,1,,180
2013-1-6,28,19,10,21,17,7,93,84,64,30.14,30.01,29.82,10,9,3,10,5,,0.00,5,Snow,292
2013-1-7,33,22,10,23,17,7,92,76,60,30.08,29.90,29.82,10,10,10,10,4,18,0.00,0,,203
2013-1-8,35,20,5,28,21,1,100,86,65,30.01,29.90,29.75,10,7,0,8,2,20,0.00,2,Fog,159
2013-1-9,33,25,17,28,22,14,93,73,60,30.35,30.05,29.76,10,10,10,21,10,33,0.00,3,,261
2013-1-10,37,26,14,32,19,12,100,73,38,30.39,30.19,29.82,10,9,2,10,2,20,0.00,2,Rain,138
2013-1-11,41,36,32,39,34,32,100,98,93,29.81,29.60,29.44,10,2,0,9,4,,0.09,8,Fog-Rain,158
2013-1-12,41,26,12,41,21,5,100,81,67,29.94,29.68,29.39,10,9,2,14,9,28,0.00,8,Rain-Snow,234
2013-1-13,14,8,3,9,5,0,85,75,67,30.09,29.95,29.88,10,9,2,10,6,16,0.00,8,Snow,285
2013-1-14,14,6,-2,5,0,-6,92,79,67,30.29,30.24,30.10,10,9,5,10,4,,0.00,3,Snow,248
2013-1-15,26,13,0,14,7,-4,92,73,47,30.27,30.11,29.85,10,10,7,9,2,22,0.00,3,,204
2013-1-16,28,20,12,23,15,3,86,73,55,30.04,29.74,29.56,10,8,2,14,7,22,0.01,5,Snow,259
2013-1-17,12,2,-7,3,-4,-13,85,68,52,30.28,30.21,30.06,10,10,10,14,7,20,0.00,3,,289
2013-1-18,32,12,-7,25,13,-13,93,82,69,30.26,29.90,29.68,10,8,1,8,2,,0.04,6,Snow,178
2013-1-19,37,20,3,30,19,-6,93,80,61,29.88,29.66,29.50,10,7,0,28,8,40,0.00,7,Snow,272
2013-1-20,6,0,-7,-6,-9,-13,84,69,48,30.18,30.10,29.90,10,10,7,18,11,25,0.00,2,,282
2013-1-21,-4,-13,-22,-9,-20,-27,84,67,45,30.12,30.07,30.03,10,9,3,16,7,24,0.00,3,,283
2013-1-22,0,-10,-20,-15,-20,-27,84,65,46,30.22,30.17,30.11,10,10,10,9,5,,0.00,0,,265
2013-1-23,10,-4,-18,3,-10,-26,85,74,61,30.39,30.12,29.97,10,8,0,15,3,24,0.00,5,Snow,296
2013-1-24,8,-6,-20,3,-10,-26,85,67,44,30.57,30.44,30.22,10,9,1,7,3,,0.02,3,Snow,190
2013-1-25,17,10,3,10,7,0,92,83,68,30.21,29.97,29.83,10,5,0,9,4,,0.00,7,Snow,246
2013-1-26,21,6,-9,10,4,-15,92,75,58,30.29,30.22,30.12,10,10,10,8,3,,0.00,3,Snow,202
2013-1-27,28,24,19,28,18,10,100,78,59,30.19,30.04,29.80,10,7,1,6,4,,0.07,8,Snow,139
2013-1-28,35,32,28,30,28,27,100,93,75,29.86,29.82,29.71,10,8,2,6,1,,0.09,6,Rain-Snow,153
2013-1-29,33,32,30,34,31,27,100,95,86,29.70,29.55,29.47,10,6,0,12,5,18,0.16,8,Fog-Rain-Snow,346
2013-1-30,30,20,10,27,17,5,93,83,74,29.57,29.45,29.37,10,5,0,15,11,28,0.03,8,Snow,333
2013-1-31,10,5,0,5,-1,-8,85,74,62,29.99,29.74,29.49,10,9,3,16,11,23,0.01,5,Snow,288